Weather History for KSAT - January, 2013

Change the Weather History Date:

Tuesday, January 29, 2013

  Actual Average Record
Temperature  
Mean Temperature 71 °F 53 °F  
Max Temperature 86 °F 64 °F 86 °F (2013)
Min Temperature 55 °F 41 °F 18 °F (1951)
Degree Days  
Heating Degree Days 0 13  
Month to date heating degree days 331 394  
Since 1 July heating degree days 790 996  
Cooling Degree Days 6 0  
Month to date cooling degree days 27 0  
Year to date cooling degree days 27 0  
Growing Degree Days 22 (Base 50)    
Moisture  
Dew Point 55 °F    
Average Humidity 58    
Maximum Humidity 90    
Minimum Humidity 25    
Precipitation  
Precipitation 0.00 in 0.06 in 1.01 in (1989)
Month to date precipitation 2.83 1.64  
Year to date precipitation 2.83 1.64  
Snow  
Snow 0.00 in - - ()
Month to date snowfall T  
Since 1 July snowfall T  
Snow Depth 0.00 in    
Sea Level Pressure  
Sea Level Pressure 29.68 in    
Wind  
Wind Speed 14 mph (South)    
Max Wind Speed 31 mph    
Max Gust Speed 41 mph    
Visibility 10 miles    
Events      
T = Trace of Precipitation, MM = Missing Value Source: NWS Daily Summary

Daily Weather History Graph

Daily Weather History Graph

Search for Another Location

Airport or City:

Trip Planner

Search our weather history database for the weather conditions in past years. The results will help you decide how hot, cold, wet, or windy it might be!

Date:

Astronomy

Jan. 29, 2013 Rise Set
Actual Time 7:24 AM CST 6:09 PM CST
Civil Twilight 6:59 AM CST 6:34 PM CST
Nautical Twilight 6:31 AM CST 7:03 PM CST
Astronomical Twilight 6:02 AM CST 7:31 PM CST
Moon 8:49 PM CST (1/29) 8:38 AM CST (1/29)
Length of Visible Light 11h 34m
Length of Day
10h 44m
Waning Gibbous, 93% of the Moon is Illuminated
Jan 29
Waning Gibbous
Feb 3
Last Quarter
Feb 10
New
Feb 17
First Quarter
Feb 25
Full

Hourly Weather History & Observations

Time (CST) Temp. Heat Index Dew Point Humidity Pressure Visibility Wind Dir Wind Speed Gust Speed Precip Events Conditions
12:51 AM 70.0 °F - 66.9 °F 90% 29.82 in 8.0 mi SSE 15.0 mph - N/A   Overcast
1:51 AM 71.1 °F - 66.0 °F 84% 29.80 in 10.0 mi SSE 15.0 mph - N/A   Overcast
2:51 AM 71.1 °F - 66.0 °F 84% 29.79 in 10.0 mi SSE 11.5 mph - N/A   Overcast
3:36 AM 69.8 °F - 66.2 °F 88% 29.83 in 10.0 mi SSE 11.5 mph - N/A   Overcast
3:51 AM 70.0 °F - 66.9 °F 90% 29.78 in 10.0 mi SSE 11.5 mph - N/A   Overcast
4:51 AM 71.1 °F - 66.0 °F 84% 29.76 in 10.0 mi SSE 11.5 mph 21.9 mph N/A   Overcast
5:51 AM 70.0 °F - 66.9 °F 90% 29.74 in 8.0 mi SSE 17.3 mph - N/A   Overcast
6:51 AM 69.8 °F - 66.2 °F 88% 29.77 in 8.0 mi SE 13.8 mph - N/A   Overcast
7:51 AM 70.0 °F - 66.9 °F 90% 29.70 in 8.0 mi SE 12.7 mph 21.9 mph N/A   Overcast
8:51 AM 69.8 °F - 66.2 °F 88% 29.73 in 9.0 mi SSE 11.5 mph - N/A   Overcast
9:51 AM 71.1 °F - 66.0 °F 84% 29.69 in 10.0 mi South 13.8 mph 20.7 mph N/A   Overcast
10:10 AM 71.6 °F - 66.2 °F 83% 29.75 in 10.0 mi SSW 9.2 mph - N/A   Overcast
10:51 AM 73.4 °F - 66.2 °F 78% 29.73 in 10.0 mi SSW 10.4 mph - N/A   Overcast
11:38 AM 77.0 °F - 66.2 °F 69% 29.70 in 10.0 mi South 15.0 mph 20.7 mph N/A   Overcast
11:51 AM 77.0 °F - 64.9 °F 66% 29.64 in 10.0 mi South 15.0 mph - N/A   Overcast
12:51 PM 78.1 °F - 63.0 °F 60% 29.60 in 10.0 mi SSW 15.0 mph 25.3 mph N/A   Overcast
1:51 PM 79.0 °F - 62.1 °F 56% 29.56 in 10.0 mi SSW 15.0 mph 24.2 mph N/A   Overcast
2:51 PM 81.0 °F 81.3 °F 59.0 °F 47% 29.51 in 10.0 mi South 10.4 mph 19.6 mph N/A   Mostly Cloudy
3:51 PM 86.0 °F 84.0 °F 53.1 °F 32% 29.48 in 10.0 mi South 12.7 mph 23.0 mph N/A   Mostly Cloudy
4:51 PM 86.0 °F - 46.0 °F 25% 29.45 in 10.0 mi South 18.4 mph 25.3 mph N/A   Mostly Cloudy
5:26 PM 80.6 °F - 46.4 °F 30% 29.57 in 10.0 mi NW 24.2 mph 39.1 mph N/A   Mostly Cloudy
5:51 PM 68.0 °F - 43.0 °F 40% 29.56 in 10.0 mi NNW 28.8 mph 40.3 mph N/A   Mostly Cloudy
6:51 PM 66.0 °F - 39.0 °F 37% 29.61 in 10.0 mi NNW 16.1 mph 25.3 mph N/A   Mostly Cloudy
7:51 PM 64.0 °F - 35.1 °F 34% 29.65 in 10.0 mi NNW 11.5 mph - N/A   Mostly Cloudy
8:51 PM 61.0 °F - 35.1 °F 38% 29.69 in 10.0 mi NNW 10.4 mph - N/A   Mostly Cloudy
9:51 PM 60.1 °F - 30.9 °F 33% 29.72 in 10.0 mi North 8.1 mph - N/A   Mostly Cloudy
10:51 PM 59.0 °F - 25.0 °F 27% 29.76 in 10.0 mi NNW 17.3 mph 23.0 mph N/A   Scattered Clouds
11:51 PM 57.0 °F - 23.0 °F 27% 29.79 in 10.0 mi NNW 9.2 mph - N/A   Mostly Cloudy